MEMAMBETSU_AIRPORT current weather conditions

sailwx.info

Wind from 310 at 12 knots

Air temperature -9.0° C
Visibility: greater than 5.4 NM
Dewpoint -17.0° C

Last reported at 2020-Jan-25 11:00 UTC.
Time now 2020-Jan-25 13:27 UTC

Location: N 43°53' E 144°10'.
View on Google Maps.

See reports from other nearby stations

  
Tides and Currents Weather Stations Pressure Air Temp Water Temp Dewpoint Dewpoint Depression Visibility Wind Speed Wind Dir Waves Ship Positions
date/time (UTC)wind fromknots sea level pressurealtimeterstation pressurevisibilityair tempwater tempwave heightnotes
2020-Jan-25 11:00 310 12 5.4-9.0
2020-Jan-25 10:00 320 12 5.4-9.0 Light snow showers.
2020-Jan-25 09:50 320 12 1.7-9.0 Light snow showers.
2020-Jan-25 09:38 320 13 0.9-9.0 Light snow showers.
2020-Jan-25 09:25 330 13 0.8-9.0 Light snow showers.
2020-Jan-25 09:00 340 12 1.2-9.0 Light snow showers.
2020-Jan-25 08:17 330 8 2.7-8.0 Light snow showers.
2020-Jan-25 08:00 340 8 1.6-8.0 Light snow showers.
2020-Jan-25 07:48 350 7 1.7-8.0 Light snow showers.
2020-Jan-25 07:27 350 9 1.7-8.0 Light snow showers.
2020-Jan-25 07:00 350 11 1.2-8.0 Light snow showers.
2020-Jan-25 06:33 340 8 1.2-8.0 Light snow showers.
2020-Jan-25 06:00 350 9 1.6-8.0 Light snow showers.
2020-Jan-25 05:34 340 8 1.3-8.0 Light snow showers.
2020-Jan-25 05:06 340 11 1.2-8.0 Light snow showers.
2020-Jan-25 05:00 350 12 1.7-8.0 Light snow showers.
2020-Jan-25 04:43 350 9 2.6-8.0 Light snow showers.
2020-Jan-25 04:00 320 8 5.4-6.0
2020-Jan-25 03:00 300 9 5.4-7.0 Light snow showers.
2020-Jan-25 02:00 290 9 gusting 20 5.4-7.0
2020-Jan-25 01:00 290 11 gusting 22 5.4-7.0
2020-Jan-25 00:00 210 4 5.4-9.0
2020-Jan-24 23:00 310 2 5.4-8.0
2020-Jan-24 22:45 300 4 5.4-8.0
2020-Jan-24 11:00 300 11 5.4-7.0
2020-Jan-24 10:00 300 6 5.4-7.0
2020-Jan-24 09:00 320 11 5.4-6.0
2020-Jan-24 08:00 320 13 5.4-6.0 Light snow showers.
2020-Jan-24 07:00 300 8 5.4-4.0 Showers in the vicinity.
2020-Jan-24 06:00 5.4-2.0
2020-Jan-24 05:00 300 5 5.4-1.0
2020-Jan-24 04:00 360 7 5.4-2.0
2020-Jan-24 03:00 5.4-1.0
2020-Jan-24 02:00 5.4-1.0
2020-Jan-24 01:00 230 5 5.4-3.0 Light snow showers.
2020-Jan-24 00:00 230 5 5.4-6.0
2020-Jan-23 23:00 140 2 5.4-13.0
2020-Jan-23 22:45 140 2 5.4-14.0